User: anonymous   Login
Location: Julian California
(33.0790°N, 116.6010°W)
Time: 17:59:27
(UTC-07:00)
Language:

Sich 1 - Orbit

View from above orbital plane
View from above orbital plane
View from above satellite
View from above satellite

Ground track
Ground track

The orbit data is extracted from the following two-line orbital elements,

1 23657U 95046A   19113.82532394  .00000133  00000-0  12336-4 0  9994
2 23657  82.5276 345.9892 0022418   9.2635 350.8990 14.86054842277818
Epoch (UTC): 23 April 2019 19:48:27
Eccentricity: 0.0022418
inclination: 82.5276°
perigee height: 594 km
apogee height: 626 km
right ascension of ascending node: 345.9892°
argument of perigee: 9.2635°
revolutions per day: 14.86054842
mean anomaly at epoch: 350.8990°
orbit number at epoch: 27781

The dashed part of the orbit path shows where the satellite is in the earth's shadow,  

DLR